SCP
0 0 0 0 0 0 0 0 0 0 0 0 0 0 0 0 0 0 0 0 0 1 1 1 1 1 1 1 1 1 1 1 1 1 1 1 1 1 1 1 1 1 1
0 0 0 0 0 0 0 0 0 0 0 0 0 0 0 0 0 0 0 0 0 0 1 1 1 1 1 1 1 1 1 1 1 1 1 1 1 1 1 1 1 1 1
0 0 0 0 0 0 0 0 0 0 0 0 0 0 0 0 0 0 0 0 0 0 0 0 1 0 1 1 2 1 1 1 1 1 1 1 1 1 1 1 1 1 1
0 0 0 0 0 0 0 0 0 0 0 0 0 0 0 0 0 0 0 0 0 0 0 0 0 0 1 1 2 1 2 2 2 1 1 1 1 1 1 1 1 1 1
0 0 0 0 0 0 0 0 0 0 0 0 0 0 0 0 0 0 0 0 0 0 0 0 0 0 1 1 2 2 2 2 2 1 1 1 1 1 1 1 1 1 1
0 0 0 0 0 0 0 0 0 0 0 0 0 0 0 0 0 0 0 0 0 0 0 0 0 0 0 1 2 3 3 2 1 1 1 1 1 1 1 1 1 1 1
0 0 0 0 0 0 0 0 0 0 0 0 0 0 0 0 0 0 0 0 0 0 0 0 0 0 0 1 1 2 2 1 1 1 1 1 1 1 1 1 1 1 1
0 0 0 0 0 0 0 0 0 0 0 0 0 0 0 0 0 0 0 0 0 0 0 0 0 0 0 0 0 1 1 1 1 1 1 1 1 1 1 1 1 1 1
0 0 0 0 0 0 0 0 0 0 0 0 0 0 0 0 0 0 0 0 0 0 0 0 0 0 0 0 0 0 0 1 1 1 1 1 1 1 1 1 1 1 1
0 0 0 0 0 0 0 0 0 0 0 0 0 0 0 0 0 0 0 0 0 0 0 0 0 0 0 0 0 0 0 0 0 0 0 1 1 1 1 1 1 0 0
0 0 0 0 0 0 0 0 0 0 0 0 0 0 0 0 0 0 0 0 0 0 0 0 0 0 0 0 0 0 0 0 0 0 0 0 0 0 0 1 0 0 0
0 0 0 0 0 0 0 0 0 0 0 0 0 0 0 0 0 0 0 0 0 0 0 0 0 0 0 0 0 0 0 0 0 0 0 0 0 0 0 0 0 0 0
0 0 0 0 0 0 0 0 0 0 0 0 0 0 0 0 0 0 0 0 0 0 0 0 0 0 0 0 0 0 0 0 0 0 0 0 0 0 0 0 0 0 0
0 0 0 0 0 0 0 0 0 0 0 0 0 0 0 0 0 0 0 0 0 0 0 0 0 0 0 0 0 0 0 0 0 0 0 0 0 0 0 0 0 0 0
0 0 0 0 0 0 0 0 0 0 0 0 0 0 0 0 0 0 0 0 0 0 0 0 0 0 0 0 0 0 0 0 0 0 0 0 0 0 0 0 0 0 0
0 0 0 0 0 0 0 0 0 0 0 0 0 0 0 0 0 0 0 0 0 0 0 0 0 0 0 0 0 0 0 0 0 0 0 0 0 0 0 0 0 0 0
0 0 0 0 0 0 0 0 0 0 0 0 0 0 0 0 0 0 0 0 0 0 0 0 0 0 0 0 0 0 0 0 0 0 0 0 0 0 0 0 0 0 0
0 0 0 0 0 0 0 0 0 0 0 0 0 0 0 0 0 0 0 0 0 0 0 0 0 0 0 0 0 0 0 0 0 0 0 0 0 0 0 0 0 0 0
0 0 0 0 0 0 0 0 0 0 0 0 0 0 0 0 0 0 0 0 0 0 0 0 0 0 0 0 0 0 0 0 0 0 0 0 0 0 0 0 0 0 0
0 0 0 0 0 0 0 0 0 0 0 0 0 0 0 0 0 0 0 0 0 0 0 0 0 0 0 0 0 0 0 0 0 0 0 0 0 0 0 0 0 0 0
0 0 0 0 0 0 0 0 0 0 0 0 0 0 0 0 0 0 0 0 0 0 0 0 0 0 0 0 0 0 0 0 0 0 0 0 0 0 0 0 0 0 0
0 0 0 0 0 0 0 0 0 0 0 0 0 0 0 0 0 0 0 0 0 0 0 0 0 0 0 0 0 0 0 0 0 0 0 0 0 0 0 0 0 0 0
0 0 0 0 0 0 0 0 0 0 0 0 0 0 0 0 0 0 0 0 0 0 0 0 0 0 0 0 0 0 0 0 0 0 0 0 0 0 0 0 0 0 0
0 0 0 0 0 0 0 0 0 0 0 0 0 0 0 0 0 0 0 0 0 0 0 0 0 0 0 0 0 0 0 0 0 0 0 0 0 0 0 0 0 0 0
0 0 0 0 0 0 0 0 0 0 0 0 0 0 0 0 0 0 0 0 0 0 0 0 0 0 0 0 0 0 0 0 0 0 0 0 0 0 0 0 0 0 0
0 0 0 0 0 0 0 0 0 0 0 0 0 0 0 0 0 0 0 0 0 0 0 0 0 0 0 0 0 0 0 0 0 0 0 0 0 0 0 0 0 0 0
Wind_Speed
2 2 2 3 3 2 3 3 3 5 5 5 5 5 5 5 5 4 4 9 9 8 8 7 7 6 7 6 6 6 6 7 7 7 7 7 7 7 7 7 7 8 8
2 2 3 3 3 3 3 3 4 4 4 4 5 5 5 4 4 4 4 6 9 9 8 8 8 7 7 7 7 7 7 7 7 8 7 7 7 7 7 7 7 7 8
2 2 2 2 2 3 3 4 4 4 4 4 5 5 4 4 4 5 4 4 5 9 10 9 9 9 8 8 8 7 7 7 7 7 7 7 7 7 7 7 7 7 8
3 3 2 2 2 3 3 3 3 4 4 4 4 4 4 4 5 4 4 4 4 4 7 10 10 9 9 9 8 8 8 8 7 7 7 7 7 7 7 8 7 7 7
3 3 2 2 2 3 3 3 3 3 3 3 3 4 4 4 4 4 5 5 5 5 4 7 10 9 9 9 8 8 8 8 8 8 8 8 8 7 8 8 8 8 8
3 3 2 2 3 3 3 3 4 3 3 3 4 4 4 3 3 4 4 4 4 5 5 5 5 6 10 11 9 9 9 8 8 8 9 9 8 8 8 8 8 8 7
2 2 2 2 2 3 3 3 3 4 2 2 3 3 3 4 4 4 3 4 5 5 5 5 4 4 4 10 11 10 9 9 8 9 9 9 9 10 10 10 10 9 9
2 2 2 2 2 3 3 3 3 2 1 1 2 2 2 3 3 4 3 3 4 4 5 5 5 5 4 4 7 10 10 9 10 9 10 10 10 11 11 11 11 10 9
2 2 2 2 2 2 2 2 2 3 1 0 1 2 2 0 1 3 3 3 4 3 4 4 5 5 5 4 4 7 10 9 9 10 10 11 11 11 11 12 12 11 10
1 1 2 2 2 2 2 1 2 2 2 1 0 1 1 2 2 1 2 3 3 4 4 4 4 4 4 3 5 8 9 9 9 9 10 11 11 11 11 12 12 12 12
1 1 1 2 2 1 2 1 1 1 1 2 1 1 1 1 1 2 0 2 2 2 2 2 2 3 4 3 3 6 8 8 9 9 10 10 11 11 11 11 12 12 11
1 1 1 1 1 1 2 2 2 1 1 1 1 1 2 2 2 2 2 0 1 2 2 2 2 2 2 3 4 7 7 8 8 9 9 10 10 10 10 11 11 11 11
1 1 0 1 1 1 1 1 2 1 1 1 1 1 1 2 2 3 3 1 0 1 2 2 2 2 2 2 3 6 6 7 7 8 8 9 9 10 10 10 10 10 10
2 1 1 1 1 1 1 1 1 1 1 1 1 1 1 1 2 3 3 3 1 1 2 2 2 1 2 1 2 4 4 6 7 7 7 8 8 9 9 9 10 10 10
1 1 1 1 1 1 1 1 1 1 1 1 1 1 1 1 1 2 2 3 3 1 1 2 1 1 1 1 2 2 2 5 6 6 6 7 7 7 8 8 8 9 9
1 1 1 1 1 0 1 1 1 0 1 0 1 1 1 1 1 1 2 1 2 3 1 1 1 1 1 1 1 1 2 4 5 5 5 5 5 6 6 7 7 8 8
1 1 1 1 1 0 1 1 1 1 1 0 0 1 1 1 1 1 1 2 2 2 2 1 1 1 0 1 1 1 1 1 2 4 4 4 4 4 4 5 5 6 6
1 1 1 1 0 0 0 1 1 1 1 1 1 1 1 1 1 1 1 2 2 2 3 2 1 0 0 0 1 1 1 1 1 3 3 3 3 3 4 4 4 5 5
1 1 1 1 1 0 0 1 1 1 1 2 2 2 2 2 1 1 2 2 2 2 2 2 1 0 0 1 1 1 2 2 2 2 2 2 3 3 2 3 3 3 4
2 1 1 1 1 1 1 1 1 1 1 1 1 2 2 2 2 2 2 2 2 2 2 2 1 0 0 0 1 0 1 2 2 2 3 3 3 3 3 3 2 2 3
2 2 1 1 1 1 1 1 1 1 1 1 1 1 2 2 3 3 2 3 3 2 2 2 1 0 1 1 1 1 1 1 1 1 1 2 2 2 2 3 3 3 3
1 2 1 1 1 1 1 2 1 1 1 1 1 1 1 1 2 3 4 4 5 4 4 3 2 2 2 2 1 2 1 0 1 1 1 2 1 2 2 1 2 3 3
2 2 2 2 2 2 2 2 2 1 1 2 2 1 1 0 0 1 1 2 3 4 5 4 4 4 3 4 3 2 2 2 2 1 1 1 1 1 2 2 2 2 2
2 2 2 2 2 2 2 2 2 1 1 1 2 2 1 1 1 2 2 1 1 2 3 3 4 4 3 3 4 3 3 2 1 1 1 1 1 2 2 2 2 1 1
2 2 2 2 2 3 3 2 1 1 1 2 2 2 2 2 2 2 3 2 1 1 1 2 2 2 3 4 4 3 2 1 1 2 1 2 1 1 1 2 2 2 2
3 2 2 2 3 3 4 3 3 2 1 1 1 1 3 3 3 3 3 3 2 2 1 0 1 2 1 0 4 3 3 2 1 2 2 2 1 1 1 2 1 1 2
Wind_Direction
65 55 49 46 43 45 55 59 64 68 67 61 58 59 54 50 45 39 25 32 38 42 48 53 50 55 57 49 45 43 43 43 46 43 42 38 36 35 32 28 21 17 13
79 71 60 51 46 50 57 68 73 73 69 64 56 52 52 51 46 41 34 24 29 34 41 49 49 55 55 48 45 47 45 48 49 46 42 38 33 32 30 27 21 18 17
94 86 75 61 51 61 71 74 68 70 71 63 51 46 47 46 44 40 35 29 22 29 40 48 48 50 49 45 45 50 50 50 48 47 41 38 32 31 30 26 23 23 25
95 88 82 71 70 70 74 80 74 71 64 60 51 40 38 39 40 42 41 35 31 27 32 40 40 40 41 37 40 47 51 50 47 47 39 35 32 31 30 28 28 27 31
88 89 84 77 80 77 74 88 74 82 80 70 64 50 37 35 29 40 41 34 32 30 27 30 32 32 34 33 38 45 49 51 47 44 41 37 33 32 31 30 32 33 35
87 91 84 78 84 86 76 81 84 72 79 78 73 57 40 37 36 37 37 34 32 33 31 27 23 23 29 29 37 47 47 48 48 47 45 39 38 37 36 34 35 34 35
90 97 94 84 85 93 100 103 98 85 72 76 76 49 28 33 40 34 32 36 31 27 30 28 25 25 18 25 31 40 41 45 49 48 46 43 42 40 42 43 41 39 39
88 106 109 108 106 106 101 106 113 108 91 65 99 90 30 7 17 25 27 38 31 25 27 26 25 28 25 20 22 34 36 39 44 48 48 48 47 45 43 41 37 35 38
74 90 106 111 116 123 133 136 137 136 146 53 84 128 127 194 339 359 19 28 26 27 16 15 24 21 22 21 13 26 34 36 42 46 48 47 46 46 45 42 37 38 43
63 93 116 120 125 126 135 153 141 144 140 149 72 75 133 152 140 2 351 10 23 30 15 12 14 16 17 18 24 34 35 34 38 42 45 46 46 46 46 44 42 44 48
33 65 117 123 130 132 143 149 142 151 154 164 166 147 106 84 109 142 307 341 6 12 9 360 5 11 10 14 18 41 38 35 40 43 43 43 44 45 43 43 42 45 47
6 25 117 136 157 161 169 181 164 159 165 165 171 170 163 160 168 150 163 234 335 335 352 355 3 359 5 14 25 45 46 43 44 45 43 40 40 41 41 41 42 43 44
268 266 194 174 188 201 192 177 159 169 171 165 183 194 189 184 159 147 144 158 232 318 346 355 346 348 9 15 15 37 45 46 45 45 45 43 40 39 40 39 39 40 42
232 229 208 200 214 208 191 173 169 190 165 175 192 178 175 186 162 162 158 148 121 346 351 324 342 342 350 3 16 23 34 43 43 45 47 47 45 43 42 41 40 41 42
227 197 182 191 211 196 180 158 160 201 153 167 178 167 163 173 163 169 161 161 152 160 287 293 312 325 325 347 12 27 23 35 41 42 44 44 44 44 42 41 40 39 38
203 151 144 152 152 135 131 129 142 186 143 176 182 157 159 176 151 144 165 163 155 156 192 256 244 281 318 36 45 28 23 20 33 38 39 37 39 41 40 39 38 37 36
173 167 170 152 150 157 135 130 178 160 145 275 274 164 205 193 154 150 146 144 150 140 152 264 286 303 31 11 4 16 20 358 7 25 30 30 32 35 36 34 32 32 32
174 174 155 137 141 158 161 169 214 211 184 221 238 191 221 177 148 158 154 164 173 168 155 174 253 342 312 310 347 -0 0 5 350 9 10 14 25 31 29 27 26 25 24
142 126 129 149 179 210 212 216 207 216 211 228 226 212 216 166 172 172 168 167 172 158 145 154 198 231 342 31 37 7 9 354 358 5 2 6 11 13 14 15 14 15 16
151 151 156 179 189 200 212 211 201 225 241 254 237 215 207 190 195 185 175 172 158 143 134 138 164 210 234 8 99 53 359 359 352 4 16 21 16 8 1 356 354 1 8
170 167 152 165 184 188 216 212 206 219 232 281 283 241 220 209 207 193 185 179 162 154 148 147 171 189 234 203 212 203 201 338 339 346 4 1 359 355 347 347 353 1 10
160 141 164 190 209 258 255 226 198 199 213 229 257 270 253 246 230 212 205 189 172 168 177 176 193 210 234 223 199 184 169 101 309 318 43 339 13 334 320 324 8 20 13
164 165 198 203 221 248 256 244 225 192 204 225 234 245 273 279 237 163 180 187 196 196 184 178 189 214 216 210 182 189 193 193 220 235 123 307 335 314 299 327 353 3 11
184 191 203 212 223 251 252 248 239 196 209 233 234 222 219 259 228 165 153 141 199 223 213 202 203 218 217 199 187 185 186 180 259 279 156 232 281 276 303 307 334 348 5
205 207 202 206 218 249 250 238 187 164 203 245 248 231 214 230 225 165 148 153 210 266 240 197 209 226 205 183 161 127 128 125 282 278 194 194 240 270 295 296 306 335 341
203 198 216 220 221 237 245 231 179 166 188 233 255 238 220 218 217 173 167 170 209 240 199 160 316 336 336 180 170 171 172 170 192 253 212 184 211 195 292 285 293 309 309